| time (UTC) | temp F | wind direction | speed MPH | gust MPH | rain 1hr in | rain 24hr in | rain mn in | humidity % | barometer mb |
| 20260507204836 | 55 | 180 | 0.0 | 1.0 | 0.00 | 0.00 | 0.00 | 85 | 1014.6 |
| 20260507204236 | 55 | 225 | 0.0 | 1.0 | 0.00 | 0.00 | 0.00 | 84 | 1014.6 |
| 20260507203637 | 55 | 180 | 0.0 | 0.0 | 0.00 | 0.00 | 0.00 | 85 | 1014.5 |
| 20260507203037 | 55 | 315 | 0.0 | 0.0 | 0.00 | 0.00 | 0.00 | 85 | 1014.5 |
| 20260507202436 | 54 | 180 | 0.0 | 1.0 | 0.00 | 0.00 | 0.00 | 84 | 1014.4 |
| 20260507201836 | 56 | 225 | 0.0 | 0.0 | 0.00 | 0.00 | 0.00 | 83 | 1014.2 |
| 20260507201236 | 55 | 180 | 0.0 | 0.0 | 0.00 | 0.00 | 0.00 | 82 | 1014.3 |
| 20260507200637 | 56 | 135 | 0.0 | 0.0 | 0.00 | 0.00 | 0.00 | 82 | 1014.2 |
| 20260507200037 | 57 | 225 | 0.0 | 0.0 | 0.00 | 0.00 | 0.00 | 81 | 1014.1 |
| 20260507195436 | 57 | 225 | 0.0 | 1.0 | 0.00 | 0.00 | 0.00 | 79 | 1014.0 |
| 20260507194837 | 58 | 90 | 0.0 | 0.0 | 0.00 | 0.00 | 0.00 | 78 | 1013.9 |
| 20260507194237 | 58 | 180 | 0.0 | 1.0 | 0.00 | 0.00 | 0.00 | 78 | 1013.9 |
| 20260507193637 | 58 | 180 | 0.0 | 0.0 | 0.00 | 0.00 | 0.00 | 74 | 1013.8 |
| 20260507193036 | 57 | 315 | 0.0 | 0.0 | 0.00 | 0.00 | 0.00 | 73 | 1013.8 |
| 20260507192436 | 58 | 0 | 0.0 | 0.0 | 0.00 | 0.00 | 0.00 | 74 | 1013.8 |
| 20260507191837 | 59 | 180 | 0.0 | 1.0 | 0.00 | 0.00 | 0.00 | 75 | 1013.7 |
| 20260507191237 | 59 | 180 | 0.0 | 0.0 | 0.00 | 0.00 | 0.00 | 73 | 1013.6 |
| 20260507190636 | 58 | 0 | 0.0 | 0.0 | 0.00 | 0.00 | 0.00 | 72 | 1013.5 |
| 20260507190037 | 58 | 180 | 0.0 | 0.0 | 0.00 | 0.00 | 0.00 | 73 | 1013.5 |
| 20260507185437 | 57 | 315 | 0.0 | 0.0 | 0.00 | 0.00 | 0.00 | 75 | 1013.4 |
| 20260507184837 | 59 | 135 | 0.0 | 0.0 | 0.00 | 0.00 | 0.00 | 77 | 1013.4 |
| 20260507184237 | 58 | 180 | 0.0 | 1.0 | 0.00 | 0.00 | 0.00 | 77 | 1013.3 |
| 20260507183636 | 58 | 90 | 0.0 | 0.0 | 0.00 | 0.00 | 0.00 | 76 | 1013.2 |
| 20260507183036 | 58 | 90 | 0.0 | 0.0 | 0.00 | 0.00 | 0.00 | 78 | 1013.2 |
| 20260507182437 | 58 | 135 | 0.0 | 0.0 | 0.00 | 0.00 | 0.00 | 79 | 1013.1 |
| 20260507181837 | 59 | 135 | 0.0 | 0.0 | 0.00 | 0.00 | 0.00 | 79 | 1013.1 |
| 20260507181237 | 60 | 180 | 0.0 | 0.0 | 0.00 | 0.00 | 0.00 | 79 | 1013.1 |
| 20260507180637 | 60 | 225 | 0.0 | 0.0 | 0.00 | 0.00 | 0.00 | 78 | 1013.0 |
| 20260507180037 | 61 | 225 | 0.0 | 0.0 | 0.00 | 0.00 | 0.00 | 78 | 1013.1 |
| 20260507175437 | 61 | 135 | 0.0 | 0.0 | 0.00 | 0.00 | 0.00 | 77 | 1013.0 |
| 20260507174837 | 62 | 180 | 0.0 | 0.0 | 0.00 | 0.00 | 0.00 | 74 | 1013.0 |
| 20260507174237 | 62 | 180 | 0.0 | 0.0 | 0.00 | 0.00 | 0.00 | 73 | 1012.9 |
| 20260507173637 | 63 | 180 | 0.0 | 0.0 | 0.00 | 0.00 | 0.00 | 71 | 1012.9 |
| 20260507173037 | 63 | 45 | 0.0 | 0.0 | 0.00 | 0.00 | 0.00 | 66 | 1012.9 |
| 20260507172437 | 63 | 0 | 0.0 | 0.0 | 0.00 | 0.00 | 0.00 | 62 | 1012.9 |
| 20260507171837 | 64 | 270 | 0.0 | 2.0 | 0.00 | 0.00 | 0.00 | 61 | 1012.9 |
| 20260507171237 | 65 | 0 | 0.0 | 0.0 | 0.00 | 0.00 | 0.00 | 61 | 1012.9 |
| 20260507170637 | 65 | 0 | 1.0 | 2.0 | 0.00 | 0.00 | 0.00 | 60 | 1012.8 |
| 20260507170037 | 65 | 45 | 1.0 | 1.0 | 0.00 | 0.00 | 0.00 | 59 | 1012.9 |
| 20260507165437 | 66 | 45 | 0.0 | 0.0 | 0.00 | 0.00 | 0.00 | 57 | 1012.8 |
| 20260507164837 | 65 | 45 | 1.0 | 1.0 | 0.00 | 0.00 | 0.00 | 58 | 1012.9 |
| 20260507164237 | 66 | 225 | 0.0 | 0.0 | 0.00 | 0.00 | 0.00 | 58 | 1012.8 |
| 20260507163636 | 64 | 315 | 0.0 | 1.0 | 0.00 | 0.00 | 0.00 | 57 | 1012.9 |
| 20260507163037 | 66 | 135 | 0.0 | 1.0 | 0.00 | 0.00 | 0.00 | 60 | 1012.9 |
| 20260507162437 | 65 | 90 | 0.0 | 0.0 | 0.00 | 0.00 | 0.00 | 59 | 1013.0 |
| 20260507161837 | 67 | 0 | 1.0 | 1.0 | 0.00 | 0.00 | 0.00 | 56 | 1013.0 |
| 20260507161237 | 65 | 0 | 0.0 | 1.0 | 0.00 | 0.00 | 0.00 | 57 | 1012.9 |
| 20260507160636 | 66 | 90 | 2.0 | 4.0 | 0.00 | 0.00 | 0.00 | 58 | 1013.0 |
| 20260507160036 | 65 | 45 | 1.0 | 2.0 | 0.00 | 0.00 | 0.00 | 55 | 1012.9 |
| 20260507155437 | 66 | 45 | 1.0 | 2.0 | 0.00 | 0.00 | 0.00 | 57 | 1013.0 |
| 20260507154837 | 66 | 90 | 0.0 | 0.0 | 0.00 | 0.00 | 0.00 | 56 | 1013.0 |
| 20260507154237 | 66 | 90 | 1.0 | 1.0 | 0.00 | 0.00 | 0.00 | 57 | 1012.9 |
| 20260507153636 | 67 | 90 | 0.0 | 1.0 | 0.00 | 0.00 | 0.00 | 55 | 1012.9 |
| 20260507153338 | 67 | 0 | 1.0 | 2.0 | 0.00 | 0.00 | 0.00 | 57 | 1013.0 |
| 20260507153036 | 67 | 0 | 1.0 | 2.0 | 0.00 | 0.00 | 0.00 | 57 | 1013.0 |
| 20260507152437 | 66 | 45 | 0.0 | 1.0 | 0.00 | 0.00 | 0.00 | 57 | 1012.9 |
| 20260507151837 | 65 | 135 | 0.0 | 1.0 | 0.00 | 0.00 | 0.00 | 56 | 1013.0 |
| 20260507151237 | 66 | 315 | 0.0 | 1.0 | 0.00 | 0.00 | 0.00 | 55 | 1013.1 |
| 20260507150636 | 66 | 135 | 1.0 | 2.0 | 0.00 | 0.00 | 0.00 | 57 | 1013.1 |
| 20260507150037 | 65 | 180 | 0.0 | 1.0 | 0.00 | 0.00 | 0.00 | 57 | 1013.1 |
| 20260507145437 | 65 | 315 | 0.0 | 2.0 | 0.00 | 0.00 | 0.00 | 56 | 1013.2 |
| 20260507144837 | 64 | 180 | 0.0 | 0.0 | 0.00 | 0.00 | 0.00 | 57 | 1013.2 |
| 20260507144237 | 65 | 135 | 0.0 | 0.0 | 0.00 | 0.00 | 0.00 | 59 | 1013.1 |
| 20260507143637 | 66 | 180 | 0.0 | 1.0 | 0.00 | 0.00 | 0.00 | 54 | 1013.1 |
| 20260507143036 | 66 | 270 | 0.0 | 0.0 | 0.00 | 0.00 | 0.00 | 58 | 1013.2 |
| 20260507142437 | 66 | 45 | 0.0 | 0.0 | 0.00 | 0.00 | 0.00 | 56 | 1013.3 |
| 20260507141837 | 66 | 180 | 2.0 | 3.0 | 0.00 | 0.00 | 0.00 | 49 | 1013.3 |
| 20260507141237 | 68 | 90 | 1.0 | 3.0 | 0.00 | 0.00 | 0.00 | 51 | 1013.3 |
| 20260507140637 | 68 | 0 | 2.0 | 3.0 | 0.00 | 0.00 | 0.00 | 51 | 1013.3 |
| 20260507140036 | 68 | 0 | 1.0 | 2.0 | 0.00 | 0.00 | 0.00 | 52 | 1013.3 |
| 20260507135436 | 67 | 315 | 1.0 | 2.0 | 0.00 | 0.00 | 0.00 | 53 | 1013.3 |
| 20260507134837 | 67 | 225 | 0.0 | 1.0 | 0.00 | 0.00 | 0.00 | 49 | 1013.5 |
| 20260507134237 | 68 | 0 | 0.0 | 1.0 | 0.00 | 0.00 | 0.00 | 49 | 1013.5 |
| 20260507133637 | 68 | 315 | 2.0 | 3.0 | 0.00 | 0.00 | 0.00 | 48 | 1013.6 |
| 20260507133036 | 69 | 45 | 1.0 | 1.0 | 0.00 | 0.00 | 0.00 | 47 | 1013.7 |
| 20260507132437 | 67 | 45 | 2.0 | 4.0 | 0.00 | 0.00 | 0.00 | 50 | 1013.6 |
| 20260507131837 | 70 | 270 | 1.0 | 2.0 | 0.00 | 0.00 | 0.00 | 46 | 1013.8 |
| 20260507131237 | 71 | 315 | 1.0 | 1.0 | 0.00 | 0.00 | 0.00 | 51 | 1013.9 |
| 20260507130037 | 69 | 45 | 1.0 | 2.0 | 0.00 | 0.00 | 0.00 | 53 | 1013.9 |
| 20260507125437 | 71 | 0 | 1.0 | 2.0 | 0.00 | 0.00 | 0.00 | 50 | 1014.0 |
| 20260507124837 | 69 | 315 | 1.0 | 1.0 | 0.00 | 0.00 | 0.00 | 55 | 1014.0 |
| 20260507124416 | 70 | 270 | 1.0 | 2.0 | 0.00 | 0.00 | 0.00 | 54 | 1014.0 |
| 20260507124237 | 70 | 270 | 1.0 | 2.0 | 0.00 | 0.00 | 0.00 | 54 | 1014.0 |
| 20260507123636 | 68 | 225 | 0.0 | 2.0 | 0.00 | 0.00 | 0.00 | 52 | 1014.1 |
| 20260507123036 | 69 | 90 | 2.0 | 4.0 | 0.00 | 0.00 | 0.00 | 49 | 1014.1 |
| 20260507122438 | 66 | 270 | 2.0 | 2.0 | 0.00 | 0.00 | 0.00 | 55 | 1014.1 |
| 20260507121837 | 65 | 90 | 1.0 | 2.0 | 0.00 | 0.00 | 0.00 | 55 | 1014.1 |
| 20260507121237 | 68 | 0 | 0.0 | 1.0 | 0.00 | 0.00 | 0.00 | 55 | 1014.1 |
| 20260507120636 | 65 | 0 | 2.0 | 5.0 | 0.00 | 0.00 | 0.00 | 53 | 1014.2 |
| 20260507120037 | 67 | 315 | 2.0 | 3.0 | 0.00 | 0.00 | 0.00 | 54 | 1014.2 |
| 20260507115437 | 67 | 0 | 1.0 | 2.0 | 0.00 | 0.00 | 0.00 | 61 | 1014.3 |
| 20260507114837 | 67 | 315 | 1.0 | 2.0 | 0.00 | 0.00 | 0.00 | 55 | 1014.3 |
| 20260507114237 | 67 | 90 | 0.0 | 2.0 | 0.00 | 0.00 | 0.00 | 54 | 1014.3 |
| 20260507113636 | 65 | 180 | 0.0 | 1.0 | 0.00 | 0.00 | 0.00 | 53 | 1014.4 |
| 20260507113038 | 65 | 315 | 2.0 | 2.0 | 0.00 | 0.00 | 0.00 | 56 | 1014.5 |
| 20260507112437 | 67 | 45 | 2.0 | 6.0 | 0.00 | 0.00 | 0.00 | 60 | 1014.4 |
| 20260507111837 | 66 | 45 | 2.0 | 2.0 | 0.00 | 0.00 | 0.00 | 55 | 1014.5 |
| 20260507111236 | 65 | 45 | 1.0 | 2.0 | 0.00 | 0.00 | 0.00 | 60 | 1014.4 |
| 20260507110636 | 64 | 270 | 1.0 | 2.0 | 0.00 | 0.00 | 0.00 | 57 | 1014.6 |
| 20260507110037 | 65 | 0 | 2.0 | 3.0 | 0.00 | 0.00 | 0.00 | 61 | 1014.6 |
| 20260507104837 | 66 | 0 | 2.0 | 5.0 | 0.00 | 0.00 | 0.00 | 56 | 1014.8 |
| 20260507104236 | 64 | 45 | 2.0 | 3.0 | 0.00 | 0.00 | 0.00 | 58 | 1014.8 |
| 20260507103637 | 64 | 0 | 2.0 | 4.0 | 0.00 | 0.00 | 0.00 | 61 | 1014.7 |
| 20260507103037 | 64 | 315 | 2.0 | 3.0 | 0.00 | 0.00 | 0.00 | 64 | 1014.7 |
| 20260507102437 | 64 | 0 | 2.0 | 4.0 | 0.00 | 0.00 | 0.00 | 59 | 1014.7 |
| 20260507101837 | 64 | 180 | 1.0 | 2.0 | 0.00 | 0.00 | 0.00 | 58 | 1014.8 |
| 20260507101236 | 64 | 0 | 2.0 | 3.0 | 0.00 | 0.00 | 0.00 | 65 | 1015.0 |
| 20260507100637 | 64 | 315 | 2.0 | 4.0 | 0.00 | 0.00 | 0.00 | 61 | 1014.8 |
| 20260507100037 | 63 | 315 | 2.0 | 4.0 | 0.00 | 0.00 | 0.00 | 60 | 1014.8 |
| 20260507095437 | 64 | 315 | 3.0 | 4.0 | 0.00 | 0.00 | 0.00 | 63 | 1014.9 |
| 20260507094837 | 63 | 315 | 0.0 | 2.0 | 0.00 | 0.00 | 0.00 | 63 | 1014.9 |
| 20260507094236 | 65 | 135 | 2.0 | 2.0 | 0.00 | 0.00 | 0.00 | 63 | 1014.9 |
| 20260507093639 | 64 | 45 | 2.0 | 5.0 | 0.00 | 0.00 | 0.00 | 67 | 1015.0 |
| 20260507093637 | 64 | 45 | 2.0 | 5.0 | 0.00 | 0.00 | 0.00 | 67 | 1015.0 |
| 20260507093036 | 63 | 0 | 0.0 | 2.0 | 0.00 | 0.00 | 0.00 | 62 | 1014.9 |
| 20260507092437 | 64 | 0 | 2.0 | 5.0 | 0.00 | 0.00 | 0.00 | 66 | 1014.9 |
| 20260507091837 | 62 | 90 | 0.0 | 1.0 | 0.00 | 0.00 | 0.00 | 65 | 1014.7 |
| 20260507091237 | 63 | 90 | 1.0 | 1.0 | 0.00 | 0.00 | 0.00 | 68 | 1014.8 |
| 20260507090636 | 62 | 0 | 1.0 | 2.0 | 0.00 | 0.00 | 0.00 | 67 | 1014.9 |
| 20260507090037 | 62 | 135 | 1.0 | 2.0 | 0.00 | 0.00 | 0.00 | 67 | 1014.9 |
| 20260507085437 | 62 | 315 | 2.0 | 3.0 | 0.00 | 0.00 | 0.00 | 64 | 1014.8 |
| 20260507084836 | 64 | 315 | 1.0 | 2.0 | 0.00 | 0.00 | 0.00 | 63 | 1014.9 |
| 20260507084236 | 67 | 90 | 0.0 | 1.0 | 0.00 | 0.00 | 0.00 | 56 | 1014.8 |
| 20260507083637 | 64 | 180 | 0.0 | 1.0 | 0.00 | 0.00 | 0.00 | 69 | 1014.8 |
| 20260507083037 | 62 | 180 | 1.0 | 2.0 | 0.00 | 0.00 | 0.00 | 71 | 1014.8 |
| 20260507082437 | 60 | 315 | 1.0 | 2.0 | 0.00 | 0.00 | 0.00 | 68 | 1014.9 |
| 20260507081836 | 63 | 45 | 2.0 | 4.0 | 0.00 | 0.00 | 0.00 | 68 | 1015.0 |
| 20260507081236 | 62 | 135 | 1.0 | 1.0 | 0.00 | 0.00 | 0.00 | 70 | 1015.1 |
| 20260507080637 | 59 | 45 | 0.0 | 0.0 | 0.00 | 0.00 | 0.00 | 77 | 1015.0 |
| 20260507080037 | 59 | 0 | 2.0 | 3.0 | 0.00 | 0.00 | 0.00 | 76 | 1015.0 |
| 20260507075437 | 59 | 45 | 2.0 | 5.0 | 0.00 | 0.00 | 0.00 | 73 | 1015.1 |
| 20260507074836 | 61 | 315 | 2.0 | 4.0 | 0.00 | 0.00 | 0.00 | 73 | 1015.0 |
| 20260507074236 | 60 | 315 | 2.0 | 2.0 | 0.00 | 0.00 | 0.00 | 72 | 1015.1 |
| 20260507073637 | 60 | 180 | 0.0 | 0.0 | 0.00 | 0.00 | 0.00 | 74 | 1015.1 |
| 20260507073037 | 57 | 135 | 1.0 | 3.0 | 0.00 | 0.00 | 0.00 | 82 | 1015.1 |
| 20260507072437 | 56 | 180 | 1.0 | 3.0 | 0.00 | 0.00 | 0.00 | 82 | 1015.1 |
| 20260507071836 | 56 | 45 | 1.0 | 2.0 | 0.00 | 0.00 | 0.00 | 83 | 1015.1 |
| 20260507071236 | 55 | 90 | 1.0 | 2.0 | 0.00 | 0.00 | 0.00 | 85 | 1015.1 |
| 20260507070637 | 53 | 0 | 0.0 | 0.0 | 0.00 | 0.00 | 0.00 | 90 | 1015.1 |
| 20260507070037 | 53 | 0 | 0.0 | 0.0 | 0.00 | 0.00 | 0.00 | 92 | 1015.1 |
| 20260507065437 | 53 | 180 | 0.0 | 0.0 | 0.00 | 0.00 | 0.00 | 92 | 1015.1 |
| 20260507064837 | 51 | 180 | 0.0 | 0.0 | 0.00 | 0.00 | 0.00 | 94 | 1015.1 |
| 20260507064236 | 53 | 135 | 0.0 | 0.0 | 0.00 | 0.00 | 0.00 | 93 | 1015.1 |
| 20260507063637 | 51 | 225 | 0.0 | 0.0 | 0.00 | 0.00 | 0.00 | 93 | 1015.2 |
| 20260507063037 | 51 | 45 | 0.0 | 0.0 | 0.00 | 0.00 | 0.00 | 94 | 1015.2 |
| 20260507062437 | 53 | 45 | 0.0 | 0.0 | 0.00 | 0.00 | 0.00 | 95 | 1015.2 |
| 20260507061837 | 51 | 135 | 0.0 | 0.0 | 0.00 | 0.00 | 0.00 | 96 | 1015.1 |
| 20260507061236 | 52 | 180 | 0.0 | 1.0 | 0.00 | 0.00 | 0.00 | 96 | 1015.1 |
| 20260507060637 | 50 | 135 | 0.0 | 0.0 | 0.00 | 0.00 | 0.00 | 96 | 1015.1 |
| 20260507060037 | 49 | 135 | 0.0 | 0.0 | 0.00 | 0.00 | 0.00 | 96 | 1015.1 |
| 20260507055437 | 49 | 135 | 0.0 | 0.0 | 0.00 | 0.00 | 0.22 | 96 | 1015.1 |
| 20260507054837 | 49 | 180 | 0.0 | 0.0 | 0.00 | 0.00 | 0.22 | 96 | 1015.1 |
| 20260507054236 | 49 | 180 | 0.0 | 0.0 | 0.00 | 0.00 | 0.22 | 96 | 1015.1 |
| 20260507053637 | 49 | 225 | 0.0 | 0.0 | 0.00 | 0.00 | 0.22 | 96 | 1015.0 |
| 20260507053037 | 49 | 180 | 0.0 | 0.0 | 0.00 | 0.00 | 0.22 | 96 | 1015.0 |
| 20260507052437 | 50 | 45 | 0.0 | 0.0 | 0.00 | 0.00 | 0.22 | 97 | 1014.9 |
| 20260507051837 | 50 | 135 | 0.0 | 0.0 | 0.00 | 0.00 | 0.22 | 96 | 1014.8 |
| 20260507051236 | 49 | 90 | 0.0 | 0.0 | 0.00 | 0.00 | 0.22 | 97 | 1014.8 |
| 20260507050637 | 49 | 180 | 0.0 | 0.0 | 0.00 | 0.00 | 0.22 | 96 | 1014.7 |
| 20260507050037 | 48 | 45 | 0.0 | 0.0 | 0.00 | 0.00 | 0.22 | 96 | 1014.6 |
| 20260507045437 | 48 | 90 | 0.0 | 0.0 | 0.00 | 0.00 | 0.22 | 97 | 1014.7 |
| 20260507044837 | 48 | 180 | 0.0 | 0.0 | 0.00 | 0.00 | 0.22 | 96 | 1014.6 |
| 20260507044237 | 48 | 90 | 0.0 | 0.0 | 0.00 | 0.00 | 0.22 | 96 | 1014.6 |
| 20260507043637 | 49 | 135 | 0.0 | 0.0 | 0.00 | 0.00 | 0.22 | 97 | 1014.5 |
| 20260507043037 | 47 | 0 | 0.0 | 1.0 | 0.00 | 0.00 | 0.22 | 97 | 1014.5 |
| 20260507042437 | 48 | 45 | 0.0 | 0.0 | 0.00 | 0.00 | 0.22 | 96 | 1014.4 |
| 20260507041837 | 47 | 135 | 0.0 | 0.0 | 0.00 | 0.00 | 0.22 | 96 | 1014.3 |
| 20260507041237 | 47 | 45 | 0.0 | 0.0 | 0.00 | 0.00 | 0.22 | 96 | 1014.3 |
| 20260507040636 | 48 | 225 | 0.0 | 0.0 | 0.00 | 0.00 | 0.22 | 96 | 1014.3 |
| 20260507040037 | 49 | 180 | 0.0 | 0.0 | 0.00 | 0.00 | 0.22 | 96 | 1014.3 |
| 20260507035437 | 49 | 135 | 0.0 | 0.0 | 0.00 | 0.00 | 0.22 | 96 | 1014.3 |
| 20260507034837 | 49 | 315 | 0.0 | 0.0 | 0.00 | 0.00 | 0.22 | 96 | 1014.3 |
| 20260507034237 | 49 | 135 | 0.0 | 0.0 | 0.00 | 0.00 | 0.22 | 96 | 1014.3 |
| 20260507033637 | 49 | 135 | 0.0 | 0.0 | 0.00 | 0.00 | 0.22 | 96 | 1014.4 |
| 20260507033037 | 49 | 0 | 0.0 | 0.0 | 0.00 | 0.00 | 0.22 | 96 | 1014.4 |
| 20260507032437 | 49 | 225 | 0.0 | 0.0 | 0.00 | 0.00 | 0.22 | 96 | 1014.3 |
| 20260507031837 | 49 | 0 | 0.0 | 0.0 | 0.00 | 0.00 | 0.22 | 96 | 1014.3 |
| 20260507031237 | 49 | 315 | 0.0 | 0.0 | 0.00 | 0.00 | 0.22 | 97 | 1014.3 |
| 20260507030637 | 49 | 180 | 0.0 | 0.0 | 0.00 | 0.00 | 0.22 | 96 | 1014.3 |
| 20260507030037 | 49 | 180 | 0.0 | 0.0 | 0.00 | 0.00 | 0.22 | 96 | 1014.4 |
| 20260507025437 | 49 | 0 | 0.0 | 0.0 | 0.00 | 0.00 | 0.22 | 97 | 1014.4 |
| 20260507024837 | 49 | 45 | 0.0 | 0.0 | 0.00 | 0.00 | 0.22 | 96 | 1014.5 |
| 20260507024236 | 49 | 45 | 0.0 | 0.0 | 0.00 | 0.00 | 0.22 | 97 | 1014.3 |
| 20260507023636 | 49 | 135 | 0.0 | 0.0 | 0.00 | 0.00 | 0.22 | 96 | 1014.4 |
| 20260507023037 | 49 | 180 | 0.0 | 0.0 | 0.00 | 0.00 | 0.22 | 97 | 1014.3 |
| 20260507022437 | 49 | 135 | 0.0 | 0.0 | 0.00 | 0.00 | 0.22 | 97 | 1014.3 |
| 20260507021837 | 49 | 135 | 0.0 | 0.0 | 0.00 | 0.00 | 0.22 | 96 | 1014.3 |
| 20260507021237 | 49 | 0 | 0.0 | 0.0 | 0.00 | 0.00 | 0.22 | 96 | 1014.3 |
| 20260507020637 | 49 | 135 | 0.0 | 1.0 | 0.00 | 0.00 | 0.22 | 97 | 1014.3 |
| 20260507020037 | 49 | 180 | 0.0 | 0.0 | 0.00 | 0.00 | 0.22 | 97 | 1014.2 |
| 20260507015437 | 49 | 180 | 0.0 | 0.0 | 0.00 | 0.00 | 0.22 | 96 | 1014.3 |
| 20260507014836 | 49 | 0 | 0.0 | 0.0 | 0.00 | 0.00 | 0.22 | 96 | 1014.1 |
| 20260507014237 | 49 | 45 | 0.0 | 0.0 | 0.00 | 0.00 | 0.22 | 97 | 1014.2 |
| 20260507013636 | 49 | 0 | 0.0 | 0.0 | 0.00 | 0.00 | 0.22 | 97 | 1014.2 |
| 20260507013037 | 48 | 45 | 0.0 | 0.0 | 0.00 | 0.00 | 0.22 | 97 | 1014.2 |
| 20260507012437 | 49 | 180 | 0.0 | 0.0 | 0.00 | 0.00 | 0.22 | 97 | 1014.2 |
| 20260507011837 | 49 | 180 | 0.0 | 0.0 | 0.00 | 0.00 | 0.22 | 96 | 1014.1 |
| 20260507011237 | 49 | 180 | 0.0 | 0.0 | 0.00 | 0.00 | 0.22 | 96 | 1014.1 |
| 20260507010637 | 48 | 225 | 0.0 | 0.0 | 0.00 | 0.00 | 0.22 | 97 | 1014.1 |
| 20260507010037 | 48 | 180 | 0.0 | 0.0 | 0.00 | 0.00 | 0.22 | 96 | 1014.0 |
| 20260507005437 | 49 | 0 | 0.0 | 0.0 | 0.00 | 0.00 | 0.22 | 96 | 1013.9 |
| 20260507004837 | 49 | 225 | 0.0 | 0.0 | 0.00 | 0.00 | 0.22 | 96 | 1014.0 |
| 20260507004236 | 49 | 180 | 0.0 | 0.0 | 0.00 | 0.00 | 0.22 | 96 | 1014.1 |
| 20260507003637 | 49 | 225 | 0.0 | 0.0 | 0.00 | 0.00 | 0.22 | 96 | 1014.0 |
| 20260507003037 | 49 | 180 | 0.0 | 0.0 | 0.00 | 0.00 | 0.22 | 96 | 1014.1 |
| 20260507002437 | 49 | 225 | 1.0 | 1.0 | 0.00 | 0.00 | 0.22 | 96 | 1014.1 |
| 20260507001837 | 48 | 225 | 1.0 | 1.0 | 0.00 | 0.00 | 0.22 | 96 | 1014.1 |
| 20260507001237 | 48 | 180 | 0.0 | 1.0 | 0.00 | 0.00 | 0.22 | 96 | 1014.2 |
| 20260507000636 | 48 | 180 | 0.0 | 1.0 | 0.00 | 0.00 | 0.22 | 96 | 1014.0 |
| 20260507000037 | 49 | 180 | 0.0 | 0.0 | 0.00 | 0.00 | 0.22 | 96 | 1014.0 |
| 20260506235437 | 48 | 180 | 0.0 | 0.0 | 0.00 | 0.00 | 0.22 | 96 | 1014.1 |
| 20260506234837 | 49 | 45 | 0.0 | 0.0 | 0.00 | 0.00 | 0.22 | 96 | 1014.2 |
| 20260506233637 | 49 | 225 | 0.0 | 0.0 | 0.00 | 0.00 | 0.22 | 96 | 1014.2 |
| 20260506233037 | 49 | 90 | 0.0 | 0.0 | 0.00 | 0.00 | 0.22 | 96 | 1014.1 |
| 20260506232437 | 49 | 180 | 0.0 | 0.0 | 0.00 | 0.00 | 0.22 | 95 | 1014.0 |
| 20260506231837 | 49 | 225 | 0.0 | 0.0 | 0.00 | 0.00 | 0.22 | 95 | 1014.1 |
| 20260506231237 | 50 | 225 | 1.0 | 1.0 | 0.00 | 0.00 | 0.22 | 96 | 1014.1 |
| 20260506230636 | 50 | 225 | 0.0 | 0.0 | 0.00 | 0.00 | 0.22 | 95 | 1014.0 |
| 20260506230037 | 50 | 135 | 0.0 | 0.0 | 0.00 | 0.00 | 0.22 | 95 | 1014.0 |
| 20260506225437 | 50 | 0 | 0.0 | 0.0 | 0.00 | 0.00 | 0.22 | 95 | 1014.1 |
| 20260506224837 | 50 | 90 | 0.0 | 0.0 | 0.00 | 0.00 | 0.22 | 95 | 1014.0 |
| 20260506224237 | 49 | 135 | 0.0 | 0.0 | 0.00 | 0.00 | 0.22 | 95 | 1014.0 |
| 20260506223637 | 50 | 90 | 0.0 | 0.0 | 0.00 | 0.00 | 0.22 | 95 | 1013.9 |
| 20260506223037 | 50 | 90 | 0.0 | 0.0 | 0.00 | 0.00 | 0.22 | 94 | 1014.0 |
| 20260506222437 | 49 | 180 | 0.0 | 0.0 | 0.00 | 0.00 | 0.22 | 94 | 1013.9 |
| 20260506221837 | 51 | 225 | 0.0 | 0.0 | 0.00 | 0.00 | 0.22 | 94 | 1013.9 |
| 20260506221236 | 51 | 90 | 0.0 | 0.0 | 0.00 | 0.00 | 0.22 | 94 | 1013.9 |
| 20260506220636 | 50 | 180 | 0.0 | 0.0 | 0.00 | 0.00 | 0.22 | 93 | 1013.9 |
| 20260506220037 | 51 | 180 | 0.0 | 0.0 | 0.00 | 0.00 | 0.22 | 94 | 1013.7 |
| 20260506215437 | 51 | 180 | 0.0 | 0.0 | 0.00 | 0.00 | 0.22 | 93 | 1013.7 |
| 20260506213037 | 51 | 315 | 2.0 | 2.0 | 0.00 | 0.00 | 0.22 | 94 | 1013.5 |
| 20260506212437 | 51 | 315 | 0.0 | 1.0 | 0.00 | 0.00 | 0.22 | 94 | 1013.5 |
| 20260506211837 | 51 | 180 | 0.0 | 1.0 | 0.00 | 0.00 | 0.22 | 94 | 1013.4 |
| 20260506211236 | 51 | 135 | 0.0 | 0.0 | 0.00 | 0.00 | 0.22 | 94 | 1013.4 |
| 20260506210637 | 51 | 135 | 0.0 | 0.0 | 0.00 | 0.00 | 0.22 | 94 | 1013.4 |
| 20260506210037 | 52 | 180 | 0.0 | 0.0 | 0.00 | 0.00 | 0.22 | 94 | 1013.3 |
| 20260506205437 | 51 | 0 | 0.0 | 1.0 | 0.00 | 0.00 | 0.22 | 94 | 1013.3 |